Погода в железнодорожной станции Тальцы

Россия / Новгородская область     59°11′42″N   32°53′15″E
темп.,
°C
ветер,
м/с
пор.,
м/с
влажн.,
%
обл.,
%
осадки,
мм/ч
давл.,
гПа
погр.,
м
16 июня, ср
ср1600:00+11зсз227693 0.0 101136
03:00+12з2867100 0.0 1013270
06:00+11зсз27730 0.0 1014239
09:00+17зсз36460 0.0 10151253
12:00+20зсз47355 0.0 10162316
15:00+22зсз58305 0.0 10162594
18:00+20сз5938100 0.0 10171887
21:00+14зсз2262100 0.0 101825
17 июня, чт
чт1700:00+12зюз116795 0.0 102018
03:00+13юз256398 0.0 1021134
06:00+12зюз267042 0.0 1022166
09:00+18з24464 0.0 1023816
12:00+22зсз35372 0.0 10231742
15:00+23зсз34300 0.0 10231941
18:00+23зсз23350 0.0 10241755
21:00+17юз11614 0.0 102411
18 июня, пт
пт1800:00+14ю226863 0.0 102519
03:00+13ю25785 0.0 102584
06:00+15ююз28739 0.0 1025207
09:00+22юз475343 0.0 1024634
12:00+26юз57405 0.0 10231591
15:00+27юз57355 0.0 10221931
18:00+27юз47404 0.0 10211793
21:00+21ююз310651 0.0 1021257
19 июня, сб
сб1900:00+17ююз310771 0.0 1022169
03:00+16ююз310850 0.0 1022192
06:00+18ююз310800 0.0 1023306
09:00+23юз47590 0.0 1023669
12:00+27юз47460 0.0 10221857
15:00+28юз57375 0.0 10212065
18:00+27юз46420 0.0 10201844
21:00+21ююз39660 0.0 1020180
20 июня, вс
вс2000:00+18ююз37750 0.0 1020121
03:00+16ююз38880 0.0 1021156
06:00+19ююз31181100 0.0 1021335
09:00+24ююз476259 0.0 1020714
12:00+28юз574769 0.0 10191687
15:00+29юз57415 0.0 10182014
18:00+28зюз47461 0.0 10181986
21:00+23ююз310685 0.0 1017264